This demonstration page uses our WeatherBlox Daily Observations layout. Learn more.

Left ArrowRight Arrow

Hourly Observations for January 29, 2019

Temp ( °F °C ) Dew Point ( °F °C ) Humidity (%) Winds ( mph kmh ) Pressure ( in mb ) Visibility ( mi km ) Precip ( " mm )
12:51 am 00:51 Clear 44 6.7 26 -3.3 49 49 ESE 7 11 29.97 1015 10 16 N/A
1:51 am 01:51 Clear 44 6.7 26 -3.3 49 49 E 7 11 29.97 1015 10 16 N/A
2:51 am 02:51 Clear 53 11.7 22 -5.6 30 30 E 16 26 29.95 1014 10 16 N/A
3:51 am 03:51 Clear 51 10.6 23 -5 33 33 ESE 9 15 29.96 1015 10 16 N/A
4:51 am 04:51 Clear 47 8.3 24 -4.4 41 41 SE 6 9 29.98 1015 10 16 N/A
5:51 am 05:51 Clear 46 7.8 25 -3.9 44 44 SE 8 13 30.00 1016 10 16 N/A
6:51 am 06:51 Clear 45 7.2 25 -3.9 46 46 SE 7 11 30.02 1017 10 16 N/A
7:51 am 07:51 Sunny 45 7.2 26 -3.3 48 48 SE 8 13 30.03 1017 10 16 N/A
8:51 am 08:51 Sunny 46 7.8 26 -3.3 46 46 SE 8 13 30.05 1018 10 16 N/A
9:51 am 09:51 Sunny 49 9.4 26 -3.3 41 41 SSE 9 15 30.05 1018 10 16 N/A
10:51 am 10:51 Sunny 52 11.1 26 -3.3 37 37 S 10 17 30.04 1017 10 16 N/A
11:51 am 11:51 Sunny 54 12.2 26 -3.3 34 34 SE 12 19 30.01 1016 10 16 N/A
12:51 pm 12:51 Sunny 56 13.3 26 -3.3 32 32 S 8 13 29.96 1015 10 16 N/A
1:51 pm 13:51 Sunny 57 13.9 25 -3.9 29 29 S 9 15 29.93 1014 10 16 N/A
2:51 pm 14:51 Mostly Sunny 57 13.9 25 -3.9 29 29 S 9 15 29.89 1012 10 16 N/A
3:51 pm 15:51 Sunny 59 15 25 -3.9 27 27 S 7 11 29.87 1012 10 16 N/A
4:51 pm 16:51 Sunny 57 13.9 25 -3.9 29 29 SSE 6 9 29.87 1012 10 16 N/A
5:51 pm 17:51 Clear 56 13.3 25 -3.9 30 30 S 5 7 29.87 1012 10 16 N/A
6:51 pm 18:51 Clear 50 10 27 -2.8 41 41 ENE 3 6 29.90 1012 10 16 N/A
7:51 pm 19:51 Clear 47 8.3 27 -2.8 46 46 ENE 5 7 29.91 1013 10 16 N/A
8:51 pm 20:51 Mostly Clear 45 7.2 27 -2.8 49 49 ENE 6 9 29.92 1013 10 16 N/A
9:51 pm 21:51 Clear 47 8.3 28 -2.2 48 48 E 6 9 29.91 1013 10 16 N/A
10:51 pm 22:51 Clear 47 8.3 28 -2.2 48 48 ESE 6 9 29.90 1013 10 16 N/A
11:51 pm 23:51 Clear 47 8.3 28 -2.2 48 48 SE 5 7 29.90 1013 10 16 N/A

Powered by AerisWeather